Location: Lake Harris Campground
(43.9775°N, 74.1317°W)
Time: 08:21:14
(UTC-05:00)

ISS - All Passes

Search period start: 24 January 2017 00:00
Search period end: 03 February 2017 00:00
Orbit: 399 x 410 km, 51.6° (Epoch: 24 January)

Date Brightness Start Highest point End Pass type
(mag) Time Alt. Az. Time Alt. Az. Time Alt. Az.
24 Jan - 01:35:04 10° NW 01:38:03 32° NNE 01:41:02 10° E night (unlit)
24 Jan - 03:11:29 10° WNW 03:14:38 49° SW 03:17:47 10° SE night (unlit)
24 Jan - 19:52:36 10° S 19:55:13 22° SE 19:57:49 10° E night (unlit)
24 Jan - 21:28:16 10° WSW 21:31:29 54° NNW 21:34:42 10° NE night (unlit)
24 Jan - 23:05:51 10° WNW 23:08:27 22° N 23:11:05 10° NE night (unlit)
25 Jan - 00:42:53 10° NW 00:45:40 25° NNE 00:48:26 10° ENE night (unlit)
25 Jan - 02:19:12 10° WNW 02:22:28 89° SSW 02:25:43 10° ESE night (unlit)
25 Jan - 03:57:08 10° WSW 03:58:29 12° SW 03:59:49 10° SSW night (unlit)
25 Jan - 19:01:46 10° SSE 19:03:12 12° SE 19:04:37 10° ESE visible
25 Jan - 20:35:57 10° WSW 20:39:13 90° NNW 20:42:30 10° ENE night (unlit)
25 Jan - 22:13:14 10° WNW 22:16:01 25° NNW 22:18:48 10° NE night (unlit)
25 Jan - 23:50:37 10° NW 23:53:14 22° N 23:55:50 10° ENE night (unlit)
26 Jan - 01:26:59 10° NW 01:30:12 54° NNE 01:33:24 10° ESE night (unlit)
26 Jan - 03:03:54 10° W 03:06:28 22° SW 03:09:02 10° S night (unlit)
26 Jan - 19:43:51 10° SW 19:47:01 50° SE 19:50:11 10° ENE visible
26 Jan - 21:20:38 10° W 21:23:36 32° NNW 21:26:35 10° NE night (unlit)
26 Jan - 22:58:13 10° NW 23:00:46 20° N 23:03:17 10° NE night (unlit)
27 Jan - 00:34:49 10° NW 00:37:52 36° NNE 00:40:54 10° E night (unlit)
27 Jan - 02:11:18 10° WNW 02:14:22 39° SW 02:17:25 10° SSE night (unlit)
27 Jan - 18:52:03 10° SSW 18:54:52 27° SE 18:57:42 10° ENE visible
27 Jan - 20:28:04 10° W 20:31:14 46° NNW 20:34:25 10° NE visible
27 Jan - 22:05:41 10° WNW 22:08:16 21° N 22:10:51 10° NE night (unlit)
27 Jan - 23:42:36 10° NW 23:45:27 27° NNE 23:48:18 10° ENE night (unlit)
28 Jan - 01:18:56 10° WNW 01:22:11 73° SW 01:25:24 10° SE night (unlit)
28 Jan - 18:00:48 10° S 18:02:48 15° SE 18:04:48 10° E visible
28 Jan - 19:35:39 10° WSW 19:38:55 75° NNW 19:42:11 10° NE visible
28 Jan - 21:13:03 10° WNW 21:15:46 24° N 21:18:30 10° NE night (unlit)
28 Jan - 22:50:19 10° NW 22:52:59 23° N 22:55:40 10° ENE night (unlit)
29 Jan - 00:26:40 10° NW 00:29:54 65° NNE 00:33:08 10° ESE night (unlit)
29 Jan - 02:03:48 10° W 02:06:05 18° SW 02:08:21 10° S night (unlit)
29 Jan - 18:43:25 10° SW 18:46:39 62° SE 18:49:53 10° ENE visible
29 Jan - 20:20:24 10° W 20:23:19 29° NNW 20:26:14 10° NE visible
29 Jan - 21:57:56 10° NW 22:00:29 21° N 22:03:03 10° NE night (unlit)
29 Jan - 23:34:26 10° NW 23:37:33 41° NNE 23:40:39 10° E night (unlit)
30 Jan - 01:11:02 10° WNW 01:13:58 32° SW 01:16:53 10° SSE night (unlit)
30 Jan - 17:51:28 10° SSW 17:54:27 33° SE 17:57:26 10° ENE visible
30 Jan - 19:27:46 10° W 19:30:53 40° NNW 19:34:00 10° NE visible
30 Jan - 21:05:24 10° NW 21:07:58 21° N 21:10:30 10° NE night (unlit)
30 Jan - 22:42:12 10° NW 22:45:07 29° NNE 22:48:02 10° E night (unlit)
31 Jan - 00:18:33 10° WNW 00:21:46 59° SW 00:24:58 10° SE night (unlit)
31 Jan - 16:59:55 10° S 17:02:18 19° SE 17:04:41 10° E daylight
31 Jan - 18:35:15 10° WSW 18:38:30 62° NNW 18:41:45 10° NE visible
31 Jan - 20:12:45 10° WNW 20:15:25 22° N 20:18:06 10° NE visible
31 Jan - 21:49:54 10° NW 21:52:38 24° NNE 21:55:22 10° ENE night (unlit)
31 Jan - 23:26:14 10° WNW 23:29:29 78° NNE 23:32:44 10° ESE night (unlit)
01 Feb - 01:03:42 10° W 01:05:34 14° SW 01:07:25 10° SSW night (unlit)
01 Feb - 16:09:45 10° SE 16:10:13 10° SE 16:10:42 10° ESE daylight
01 Feb - 17:42:54 10° SW 17:46:10 77° SSE 17:49:26 10° ENE visible
01 Feb - 19:20:03 10° WNW 19:22:54 27° NNW 19:25:46 10° NE visible
01 Feb - 20:57:30 10° NW 21:00:06 21° N 21:02:41 10° ENE night (unlit)
01 Feb - 22:33:56 10° NW 22:37:07 47° NNE 22:40:16 10° E night (unlit)
02 Feb - 00:10:41 10° W 00:13:27 26° SW 00:16:11 10° SSE night (unlit)
02 Feb - 16:50:47 10° SSW 16:53:54 41° SE 16:57:01 10° ENE daylight
02 Feb - 18:27:21 10° W 18:30:25 35° NNW 18:33:28 10° NE visible
02 Feb - 20:04:58 10° NW 20:07:31 21° N 20:10:05 10° NE visible
02 Feb - 21:41:40 10° NW 21:44:40 33° NNE 21:47:39 10° E night (unlit)
02 Feb - 23:18:05 10° WNW 23:21:14 47° SW 23:24:22 10° SE night (unlit)
